GW7284 Weather Reports


time (UTC)temp
F
wind
direction
speed
knots
gust
knots
rain 1hr
in
rain 24hr
in
rain mn
in
humidity
%
barometer
mb
20260504234245 80 142 1.7 2.6 0.00 0.20 0.20 44 980.4
20260504233741 80 205 0.9 1.7 0.00 0.20 0.20 44 980.4
20260504233237 80 312 0.9 3.5 0.00 0.20 0.20 44 980.5
20260504232734 80 259 1.7 1.7 0.00 0.20 0.20 43 980.2
20260504232231 80 221 0.9 0.9 0.00 0.20 0.20 44 980.2
20260504231728 80 134 1.7 1.7 0.00 0.20 0.20 43 980.5
20260504231224 80 245 0.9 2.6 0.00 0.20 0.20 42 980.4
20260504230720 80 116 0.9 3.5 0.00 0.20 0.20 43 980.5
20260504230219 80 304 2.6 2.6 0.00 0.20 0.20 42 980.3
20260504225718 80 170 1.7 5.2 0.00 0.20 0.20 43 980.5
20260504225214 80 187 3.5 5.2 0.00 0.20 0.20 42 980.6
20260504224711 80 133 1.7 2.6 0.00 0.20 0.20 44 980.8
20260504224208 80 294 1.7 5.2 0.00 0.20 0.20 41 980.5
20260504223704 80 165 1.7 3.5 0.00 0.20 0.20 42 980.6
20260504223200 80 166 1.7 5.2 0.00 0.20 0.20 41 980.5
20260504222657 80 141 3.5 9.6 0.00 0.20 0.20 42 980.8
20260504222154 80 124 2.6 7.8 0.00 0.20 0.20 41 980.7
20260504221651 80 301 2.6 5.2 0.00 0.20 0.20 42 980.6
20260504221148 80 142 4.3 6.1 0.00 0.20 0.20 41 980.7
20260504220644 80 207 2.6 3.5 0.00 0.20 0.20 41 980.8
20260504220142 80 303 3.5 6.1 0.00 0.20 0.20 39 980.7
20260504215638 80 260 3.5 8.7 0.00 0.20 0.20 41 980.7
20260504215136 80 139 5.2 7.8 0.00 0.20 0.20 40 980.6
20260504214632 80 248 2.6 6.1 0.00 0.20 0.20 41 980.8
20260504214128 81 282 6.1 9.6 0.00 0.20 0.20 40 980.7
20260504213625 81 307 4.3 7.0 0.00 0.20 0.20 39 980.8
20260504213122 82 239 3.5 8.7 0.00 0.20 0.20 39 980.7
20260504212618 83 171 6.1 8.7 0.00 0.20 0.20 38 980.7
20260504212115 82 135 2.6 6.1 0.00 0.20 0.20 41 980.7
20260504211612 83 160 2.6 5.2 0.00 0.20 0.20 42 980.6
20260504211109 83 246 3.5 7.0 0.00 0.20 0.20 40 980.6
20260504210607 83 119 4.3 8.7 0.00 0.20 0.20 40 980.7
20260504205601 83 196 1.7 8.7 0.00 0.20 0.20 41 980.8
20260504205058 83 309 5.2 7.8 0.00 0.20 0.20 43 980.7
20260504204556 83 289 3.5 5.2 0.00 0.20 0.20 42 980.9
20260504204055 82 182 1.7 3.5 0.00 0.20 0.20 43 980.9
20260504203553 82 40 3.5 7.0 0.00 0.20 0.20 41 980.8
20260504203050 81 154 2.6 8.7 0.00 0.20 0.20 43 980.8
20260504202545 82 298 4.3 9.6 0.00 0.20 0.20 42 980.9
20260504202042 82 188 3.5 8.7 0.00 0.20 0.20 42 981.4
20260504201539 81 242 4.3 6.1 0.00 0.20 0.20 43 981.3
20260504201037 81 134 5.2 9.6 0.00 0.20 0.20 43 981.3
20260504200533 81 155 1.7 9.6 0.00 0.20 0.20 49 981.3
20260504200030 81 4 3.5 5.2 0.00 0.20 0.20 44 981.7
20260504195526 80 184 1.7 7.0 0.00 0.20 0.20 49 981.9
20260504195023 80 138 1.7 7.0 0.00 0.20 0.20 47 981.8
20260504194519 79 131 0.9 6.1 0.00 0.20 0.20 50 981.8
20260504194015 79 203 2.6 6.1 0.00 0.20 0.20 50 981.9
20260504193512 79 194 4.3 6.1 0.00 0.20 0.20 51 981.8
20260504193011 77 197 1.7 1.7 0.00 0.20 0.20 55 981.9
20260504192508 76 233 0.9 2.6 0.00 0.20 0.20 57 982.0
20260504192006 74 92 0.9 1.7 0.00 0.20 0.20 63 981.9
20260504191504 74 172 1.7 3.5 0.00 0.20 0.20 64 982.1
20260504190959 73 193 1.7 6.1 0.00 0.20 0.20 67 981.8
20260504190455 73 219 0.9 1.7 0.00 0.20 0.20 67 982.3
20260504185952 73 143 0.9 1.7 0.00 0.20 0.20 69 982.4
20260504185449 73 314 1.7 5.2 0.00 0.20 0.20 65 982.4
20260504184945 70 171 1.7 3.5 0.00 0.20 0.20 68 982.4
20260504184441 65 185 1.7 1.7 0.00 0.20 0.20 87 982.1
20260504183937 63 86 0.0 0.0 0.00 0.20 0.20 91 981.7
20260504183434 63 92 0.0 0.0 0.00 0.20 0.20 89 981.9
20260504182932 62 94 0.0 0.0 0.00 0.20 0.20 88 982.2
20260504182429 62 94 0.0 0.9 0.00 0.20 0.20 88 982.8
20260504181926 62 125 0.9 0.9 0.00 0.20 0.20 88 983.0
20260504181423 62 126 0.0 0.9 0.00 0.20 0.20 88 983.6
20260504180922 63 126 0.0 0.0 0.00 0.20 0.20 88 983.3
20260504180420 64 126 0.0 0.9 0.00 0.20 0.20 87 983.1
20260504175918 64 128 0.0 0.0 0.00 0.20 0.20 87 983.2
20260504175415 64 129 0.0 0.0 0.00 0.20 0.20 89 983.0
20260504174912 63 129 0.0 0.0 0.00 0.20 0.20 90 983.3
20260504174410 63 129 0.0 0.0 0.00 0.20 0.20 90 983.3
20260504173907 63 134 0.0 0.0 0.00 0.20 0.20 89 983.1
20260504173403 63 135 0.0 0.0 0.00 0.20 0.20 88 983.4
20260504172900 62 135 0.0 0.0 0.00 0.20 0.20 89 983.6
20260504172357 62 135 0.0 0.0 0.00 0.20 0.20 91 983.8
20260504171853 62 135 0.0 0.9 0.00 0.20 0.20 90 983.8
20260504171350 62 140 0.0 0.0 0.00 0.20 0.20 90 984.0
20260504170847 62 116 0.0 0.0 0.00 0.20 0.20 89 983.7
20260504170344 62 116 0.0 0.0 0.00 0.20 0.20 90 983.7
20260504160302 58 85 0.9 0.9 0.09 0.20 0.20 92 984.6
20260504150728 64 168 0.0 0.0 0.00 0.00 0.00 62 985.6
20260504150225 64 168 0.0 0.0 0.00 0.00 0.00 63 985.7
20260504141154 66 246 1.7 3.5 0.00 0.00 0.00 58 985.3
20260504140650 66 257 1.7 2.6 0.00 0.00 0.00 58 985.3
20260504140146 66 239 0.9 1.7 0.00 0.00 0.00 60 985.3
20260504130614 58 116 0.0 0.9 0.00 0.00 0.00 78 985.9
20260504130111 58 104 0.0 0.0 0.00 0.00 0.00 79 985.8
20260504110503 57 105 0.0 0.0 0.00 0.00 0.00 78 986.2
20260504100424 57 105 0.0 0.0 0.00 0.00 0.00 75 986.3
20260504081817 62 130 0.0 0.0 0.00 0.00 0.00 60 986.3
20260504081314 62 129 0.0 0.0 0.00 0.00 0.00 60 986.4
20260504080810 62 129 0.0 0.0 0.00 0.00 0.00 60 986.2
20260504080308 63 129 0.0 0.0 0.00 0.00 0.00 59 986.1
20260504070235 64 141 0.9 0.9 0.00 0.00 0.00 54 985.9
20260504060155 65 14 2.6 5.2 0.00 0.00 0.00 54 986.4
20260504050623 66 142 0.9 0.9 0.00 0.00 0.00 53 986.3
20260504050120 65 354 0.9 0.9 0.00 0.00 0.00 54 986.5
20260504045617 66 244 0.9 0.9 0.00 0.00 0.00 56 986.6
20260504045112 66 263 0.0 1.7 0.00 0.00 0.00 54 986.5
20260504044610 66 171 0.0 0.0 0.00 0.00 0.00 54 986.7
20260504044107 66 171 0.0 0.0 0.00 0.00 0.00 53 986.7
20260504043604 67 172 0.0 0.0 0.00 0.00 0.00 53 986.8
20260504043101 67 172 0.0 0.9 0.00 0.00 0.00 52 986.7
20260504042558 67 172 0.9 0.9 0.00 0.00 0.00 53 986.8
20260504042055 67 120 0.0 0.0 0.00 0.00 0.00 53 987.1
20260504041550 67 120 0.0 0.0 0.00 0.00 0.00 53 986.9
20260504041047 67 129 0.0 0.0 0.00 0.00 0.00 54 987.4
20260504040545 67 129 0.0 0.9 0.00 0.00 0.00 52 987.3
20260504040041 67 118 0.0 0.9 0.00 0.00 0.00 52 987.3
20260504035538 67 136 0.0 0.0 0.00 0.00 0.00 53 986.9
20260504035034 67 324 0.9 0.9 0.00 0.00 0.00 52 987.0
20260504034533 67 152 0.0 0.0 0.00 0.00 0.00 54 987.1
20260504034029 67 180 0.0 0.9 0.00 0.00 0.00 55 987.4
20260504033527 67 177 0.0 0.0 0.00 0.00 0.00 54 987.3
20260504033024 67 179 0.0 0.9 0.00 0.00 0.00 52 987.5
20260504032521 67 235 0.0 0.9 0.00 0.00 0.00 53 987.2
20260504032018 69 204 0.9 1.7 0.00 0.00 0.00 53 987.0
20260504031515 69 193 1.7 2.6 0.00 0.00 0.00 51 987.1
20260504031011 69 92 0.0 0.0 0.00 0.00 0.00 49 988.1
20260504030508 69 91 0.0 0.0 0.00 0.00 0.00 47 987.9
20260504030004 70 91 0.0 0.0 0.00 0.00 0.00 47 988.0
20260504025501 70 134 0.0 0.9 0.00 0.00 0.00 47 987.8
20260504024958 70 150 0.0 0.0 0.00 0.00 0.00 47 987.5
20260504024455 70 149 0.9 0.9 0.00 0.00 0.00 47 987.7
20260504023952 70 150 0.0 0.0 0.00 0.00 0.00 47 987.5
20260504023449 70 148 0.0 0.0 0.00 0.00 0.00 45 987.4
20260504022944 71 148 0.0 0.0 0.00 0.00 0.00 44 987.3
20260504022441 71 147 0.0 1.7 0.00 0.00 0.00 43 987.3
20260504021937 71 136 0.0 0.0 0.00 0.00 0.00 43 987.1
20260504021435 71 151 0.0 0.0 0.00 0.00 0.00 42 987.3
20260504020932 71 163 0.0 0.9 0.00 0.00 0.00 42 987.0
20260504020428 71 118 0.0 0.9 0.00 0.00 0.00 42 987.2
20260504015925 69 118 0.9 0.9 0.00 0.00 0.00 44 987.0
20260504015421 69 115 0.0 0.0 0.00 0.00 0.00 47 987.2
20260504014917 69 115 0.0 0.0 0.00 0.00 0.00 46 987.1
20260504014413 69 115 0.9 0.9 0.00 0.00 0.00 47 987.1
20260504013910 72 129 0.0 0.0 0.00 0.00 0.00 47 987.0
20260504013409 72 133 0.0 0.0 0.00 0.00 0.00 42 987.0
20260504012904 73 133 0.0 0.0 0.00 0.00 0.00 41 986.7
20260504012403 73 132 0.9 0.9 0.00 0.00 0.00 40 986.7
20260504011900 73 145 0.9 0.9 0.00 0.00 0.00 39 986.8
20260504011356 74 144 0.0 0.0 0.00 0.00 0.00 39 986.9
20260504010852 74 131 0.0 0.0 0.00 0.00 0.00 39 986.8
20260504010348 74 96 1.7 1.7 0.00 0.00 0.00 38 986.8
20260504005845 75 145 0.0 0.9 0.00 0.00 0.00 39 986.6
20260504005341 75 147 0.0 0.0 0.00 0.00 0.00 37 986.6
20260504004839 75 158 0.0 2.6 0.00 0.00 0.00 37 986.7
20260504004337 76 144 0.0 0.9 0.00 0.00 0.00 37 986.7
20260504003833 76 190 0.9 0.9 0.00 0.00 0.00 36 986.5
20260504003330 76 267 0.9 0.9 0.00 0.00 0.00 36 986.6
20260504002827 76 180 0.0 1.7 0.00 0.00 0.00 36 986.9
20260504002323 76 159 0.9 2.6 0.00 0.00 0.00 35 986.5
20260504001821 77 114 1.7 2.6 0.00 0.00 0.00 34 986.5
20260504001318 77 163 2.6 2.6 0.00 0.00 0.00 34 986.6
20260504000815 78 152 1.7 2.6 0.00 0.00 0.00 34 986.7
20260504000312 78 276 1.7 2.6 0.00 0.00 0.00 34 986.5
20260503235810 78 181 1.7 2.6 0.00 0.00 0.00 34 986.7
20260503235307 78 120 1.7 5.2 0.00 0.00 0.00 34 986.6
20260503234805 78 280 4.3 6.1 0.00 0.00 0.00 32 986.9